Location: Gerlach
(40.6516°N, 119.3568°W)
Time: 16:00:19
(UTC-07:00)

A-11 Canister half - Pass Details

Date: 29 February 2024
Orbit: 1525 x 1683 km, 47.3° (Epoch: 22 April)

Event Time Altitude Azimuth Distance (km) Brightness Sun altitude
Exits shadow 03:43:17 11° 178° (S) 3,624 10.8 -32.4°
Drops below altitude 10° 03:43:39 10° 176° (S) 3,717 10.8 -32.3°
Sets 03:47:18 0° 165° (SSE) 4,717 11.5 -31.7°
